IRIDIUM 176

Last updated on Fri Sep 11 2026 00:03:06 GMT+0000 (Coordinated Universal Time)

1 43923U 19002B 26253.45845173 .00000473 00000+0 71111-4 0 9996 2 43923 86.6109 317.9050 0002402 94.1669 265.9823 14.72256584411792
UTC large
Height (km)
Speed (km/s)
/
Latitude / Longitude
Inclination (degrees)
Orbital Period (minutes)
Azimuth
Elevation
Range (km)
Doppler Factor

Next 0 passes for location: London (51.5072 / 0.1276)

No passes found over London.
IRIDIUM 176